Flag for Germany Weather past 2 weeks in Kerpen, North Rhine-Westphalia, Germany

Now
55 °F

Cool.


Feels Like: 54 °F
Forecast: 48 / 59 °F
Wind: 6 mph from Southwest

Location: Noervenich

Current Time: Sep 5, 2015 at 10:49:59 AM

Latest Report: Sep 5, 2015 at 9:20 AM


Visibility: 6 mi

Pressure: 30.01 "Hg

Humidity: 94%

Dew point: 54 °F

Location of KerpenLocation

Historic Weather in Kerpen — Graph

°F

Kerpen temperature yesterday

Maximum temperature yesterday: 61 °F (at 2:20 PM)
Minimum temperature yesterday: 50 °F (at 6:20 AM)
Average temperature yesterday: 56 °F

Past Weeks' High & Low Weather Summary

 TemperatureHumidityPressure
High91 °F (Aug 30, 3:20 PM)100% (Aug 24, 2:49 AM)30.24 "Hg (Aug 24, 2:49 AM)
Low50 °F (Aug 29, 5:20 AM)30% (Aug 23, 3:20 PM)29.53 "Hg (Aug 24, 2:20 PM)
Average65 °F73%29.94 "Hg
* Reported Aug 21 9:20 AM — Sep 5 9:20 AM, Kerpen, Weather by CustomWeather, © 2015

Note: Actual official high and low records may vary slightly from our data, if they occured in-between our weather recording intervals... More about our weather records

Advertising

Kerpen weather history for previous 24 hours

 ConditionsComfort  
Time TempWeatherWind HumidityBarometerVisibility
9:20 AM
Sat, Sep 5
55 °FCool.6 mph94%30.01 "Hg6 mi
8:20 AM54 °FCool.8 mph94%29.98 "Hg4 mi
7:20 AM54 °FCool.8 mph94%29.98 "Hg1 mi
6:20 AM54 °FCool.9 mph88%29.95 "Hg1 mi
5:20 AM54 °FPassing clouds.9 mph88%29.95 "HgN/A
4:20 AM54 °FPassing clouds.14 mph88%29.95 "HgN/A
3:20 AM54 °FPartly cloudy.12 mph88%29.95 "HgN/A
2:20 AM54 °FPassing clouds.13 mph82%29.95 "HgN/A
1:20 AM54 °FPassing clouds.14 mph82%29.95 "HgN/A
12:20 AM55 °FPartly cloudy.10 mph77%29.95 "HgN/A
11:20 PM
Fri, Sep 4
55 °FPassing clouds.10 mph77%29.98 "HgN/A
10:20 PM55 °FPassing clouds.7 mph77%29.98 "HgN/A
9:20 PM55 °FPartly cloudy.6 mph77%29.98 "HgN/A
8:20 PM55 °FPassing clouds.8 mph77%29.95 "HgN/A
7:20 PM55 °FBroken clouds.9 mph88%29.95 "HgN/A
6:20 PM61 °FBroken clouds.12 mph63%29.95 "HgN/A
5:20 PM61 °FPartly sunny.14 mph59%29.95 "HgN/A
4:20 PM61 °FPartly sunny.13 mph63%29.95 "HgN/A
3:20 PM61 °FPartly sunny.12 mph59%29.98 "HgN/A
2:20 PM61 °FPartly sunny.10 mph59%29.98 "HgN/A
1:20 PM59 °FPartly sunny.10 mph63%29.98 "HgN/A
12:20 PM59 °FPartly sunny.14 mph63%29.98 "HgN/A
11:20 AM57 °FPartly sunny.9 mph72%29.98 "HgN/A
10:20 AM55 °FPartly sunny.8 mph77%29.98 "HgN/A
Weather by CustomWeather, © 2015

See weather overviewHow to use our weather pages